Time,TemperatureF,DewpointF,PressureIn,WindDirection,WindDirectionDegrees,WindSpeedMPH,WindSpeedGustMPH,Humidity,HourlyPrecipIn,Conditions,Clouds,dailyrainin,SoftwareType,DateUTC
2013-03-27 00:02:00,31.0,15.0,-100.00,ESE,110,2.0,11.0,49,0.00,,,-99.99,,2013-03-27 06:02:00,
2013-03-27 00:12:00,31.0,15.0,-100.00,SW,220,3.0,11.0,49,0.00,,,-99.99,,2013-03-27 06:12:00,
2013-03-27 00:22:00,30.0,15.0,-100.00,SW,220,7.0,11.0,53,0.00,,,-99.99,,2013-03-27 06:22:00,
2013-03-27 00:32:00,30.0,15.0,-100.00,WSW,245,4.0,9.0,53,0.00,,,-99.99,,2013-03-27 06:32:00,
2013-03-27 00:42:00,30.0,15.0,-100.00,SW,220,3.0,7.0,53,0.00,,,-99.99,,2013-03-27 06:42:00,
2013-03-27 00:53:00,31.0,15.0,-100.00,SW,220,7.0,11.0,51,0.00,,,-99.99,,2013-03-27 06:53:00,
2013-03-27 01:02:00,31.0,15.0,-100.00,SW,220,9.0,14.0,51,0.00,,,-99.99,,2013-03-27 07:02:00,
2013-03-27 01:12:00,29.0,15.0,-100.00,South,175,5.0,18.0,54,0.00,,,-99.99,,2013-03-27 07:12:00,
2013-03-27 01:22:00,28.0,17.0,-100.00,SW,235,4.0,9.0,62,0.00,,,-99.99,,2013-03-27 07:22:00,
2013-03-27 01:32:00,28.0,17.0,-100.00,SSW,210,2.0,6.0,63,0.00,,,-99.99,,2013-03-27 07:32:00,
2013-03-27 01:42:00,28.0,18.0,-100.00,SSW,200,2.0,7.0,63,0.00,,,-99.99,,2013-03-27 07:42:00,
2013-03-27 01:53:00,29.0,17.0,-100.00,SW,215,9.0,12.0,60,0.00,,,-99.99,,2013-03-27 07:53:00,
2013-03-27 02:02:00,29.0,17.0,-100.00,SW,230,3.0,12.0,60,0.00,,,-99.99,,2013-03-27 08:02:00,
2013-03-27 02:12:00,29.0,17.0,-100.00,South,175,1.0,4.0,61,0.00,,,-99.99,,2013-03-27 08:12:00,
2013-03-27 02:22:00,28.0,18.0,-100.00,SSW,210,6.0,10.0,64,0.00,,,-99.99,,2013-03-27 08:22:00,
2013-03-27 02:32:00,28.0,18.0,-100.00,SW,230,4.0,10.0,65,0.00,,,-99.99,,2013-03-27 08:32:00,
2013-03-27 02:43:00,28.0,18.0,-100.00,SSW,210,5.0,8.0,65,0.00,,,-99.99,,2013-03-27 08:43:00,
2013-03-27 02:52:00,28.0,18.0,-100.00,SW,225,7.0,10.0,65,0.00,,,-99.99,,2013-03-27 08:52:00,
2013-03-27 03:01:00,28.0,18.0,-100.00,SW,220,5.0,10.0,65,0.00,,,-99.99,,2013-03-27 09:01:00,
2013-03-27 03:12:00,28.0,18.0,-100.00,SW,225,4.0,9.0,65,0.00,,,-99.99,,2013-03-27 09:12:00,
2013-03-27 03:22:00,27.0,18.0,-100.00,SW,220,4.0,6.0,66,0.00,,,-99.99,,2013-03-27 09:22:00,
2013-03-27 03:32:00,27.0,17.0,-100.00,SW,220,6.0,9.0,66,0.00,,,-99.99,,2013-03-27 09:32:00,
2013-03-27 03:42:00,28.0,17.0,-100.00,SW,220,6.0,9.0,65,0.00,,,-99.99,,2013-03-27 09:42:00,
2013-03-27 03:52:00,28.0,18.0,-100.00,SW,225,6.0,10.0,64,0.00,,,-99.99,,2013-03-27 09:52:00,
2013-03-27 04:02:00,28.0,18.0,-100.00,South,185,4.0,10.0,64,0.00,,,-99.99,,2013-03-27 10:02:00,
2013-03-27 04:12:00,28.0,18.0,-100.00,SW,215,4.0,11.0,63,0.00,,,-99.99,,2013-03-27 10:12:00,
2013-03-27 04:23:00,28.0,17.0,-100.00,SSW,210,6.0,9.0,63,0.00,,,-99.99,,2013-03-27 10:23:00,
2013-03-27 04:32:00,28.0,17.0,-100.00,SW,220,7.0,9.0,63,0.00,,,-99.99,,2013-03-27 10:32:00,
2013-03-27 04:42:00,28.0,17.0,-100.00,SW,220,6.0,9.0,63,0.00,,,-99.99,,2013-03-27 10:42:00,
2013-03-27 04:52:00,29.0,17.0,-100.00,SSW,210,6.0,12.0,62,0.00,,,-99.99,,2013-03-27 10:52:00,
2013-03-27 05:02:00,29.0,17.0,-100.00,SW,215,4.0,7.0,61,0.00,,,-99.99,,2013-03-27 11:02:00,
2013-03-27 05:12:00,29.0,17.0,-100.00,SSW,205,6.0,9.0,60,0.00,,,-99.99,,2013-03-27 11:12:00,
2013-03-27 05:22:00,29.0,17.0,-100.00,SW,215,6.0,9.0,60,0.00,,,-99.99,,2013-03-27 11:22:00,
2013-03-27 05:32:00,28.0,17.0,-100.00,SW,230,4.0,9.0,60,0.00,,,-99.99,,2013-03-27 11:32:00,
2013-03-27 05:42:00,28.0,16.0,-100.00,WSW,250,4.0,6.0,60,0.00,,,-99.99,,2013-03-27 11:42:00,
2013-03-27 05:52:00,28.0,16.0,-100.00,SW,230,4.0,7.0,61,0.00,,,-99.99,,2013-03-27 11:52:00,
2013-03-27 06:02:00,28.0,16.0,-100.00,SW,235,4.0,6.0,60,0.00,,,-99.99,,2013-03-27 12:02:00,
2013-03-27 06:12:00,28.0,16.0,-100.00,WSW,245,4.0,7.0,61,0.00,,,-99.99,,2013-03-27 12:12:00,
2013-03-27 06:23:00,28.0,16.0,-100.00,WSW,245,4.0,6.0,61,0.00,,,-99.99,,2013-03-27 12:23:00,
2013-03-27 06:32:00,28.0,16.0,-100.00,WSW,250,4.0,6.0,61,0.00,,,-99.99,,2013-03-27 12:32:00,
2013-03-27 06:43:00,28.0,16.0,-100.00,WSW,245,4.0,7.0,61,0.00,,,-99.99,,2013-03-27 12:43:00,
2013-03-27 06:52:00,28.0,16.0,-100.00,WSW,245,4.0,7.0,61,0.00,,,-99.99,,2013-03-27 12:52:00,
2013-03-27 07:02:00,28.0,16.0,-100.00,SW,235,4.0,9.0,60,0.00,,,-99.99,,2013-03-27 13:02:00,
2013-03-27 07:12:00,27.0,16.0,-100.00,SW,235,4.0,7.0,61,0.00,,,-99.99,,2013-03-27 13:12:00,
2013-03-27 07:22:00,27.0,15.0,-100.00,SW,230,4.0,7.0,62,0.00,,,-99.99,,2013-03-27 13:22:00,
2013-03-27 07:32:00,27.0,15.0,-100.00,SW,225,6.0,9.0,61,0.00,,,-99.99,,2013-03-27 13:32:00,
2013-03-27 07:42:00,27.0,15.0,-100.00,SW,220,6.0,12.0,60,0.00,,,-99.99,,2013-03-27 13:42:00,
2013-03-27 07:52:00,29.0,16.0,-100.00,SW,225,4.0,10.0,58,0.00,,,-99.99,,2013-03-27 13:52:00,
2013-03-27 08:02:00,29.0,17.0,-100.00,SW,220,4.0,7.0,57,0.00,,,-99.99,,2013-03-27 14:02:00,
2013-03-27 08:12:00,30.0,17.0,-100.00,SW,235,1.0,5.0,57,0.00,,,-99.99,,2013-03-27 14:12:00,
2013-03-27 08:22:00,31.0,18.0,-100.00,WNW,285,4.0,6.0,56,0.00,,,-99.99,,2013-03-27 14:22:00,
2013-03-27 08:32:00,33.0,18.0,-100.00,ESE,110,1.0,4.0,54,0.00,,,-99.99,,2013-03-27 14:32:00,
2013-03-27 08:42:00,33.0,18.0,-100.00,West,265,3.0,7.0,52,0.00,,,-99.99,,2013-03-27 14:42:00,
2013-03-27 08:52:00,35.0,19.0,-100.00,East,95,1.0,3.0,51,0.00,,,-99.99,,2013-03-27 14:52:00,
2013-03-27 09:02:00,35.0,18.0,-100.00,SW,215,3.0,6.0,49,0.00,,,-99.99,,2013-03-27 15:02:00,
2013-03-27 09:12:00,35.0,18.0,-100.00,SSW,195,5.0,13.0,48,0.00,,,-99.99,,2013-03-27 15:12:00,
2013-03-27 09:22:00,35.0,17.0,-100.00,SW,220,6.0,13.0,48,0.00,,,-99.99,,2013-03-27 15:22:00,
2013-03-27 09:33:00,34.0,17.0,-100.00,SW,230,8.0,14.0,48,0.00,,,-99.99,,2013-03-27 15:33:00,
2013-03-27 09:42:00,34.0,18.0,-100.00,SW,225,9.0,13.0,49,0.00,,,-99.99,,2013-03-27 15:42:00,
2013-03-27 09:52:00,35.0,18.0,-100.00,SSW,210,8.0,18.0,49,0.00,,,-99.99,,2013-03-27 15:52:00,
2013-03-27 10:02:00,35.0,18.0,-100.00,South,175,4.0,12.0,48,0.00,,,-99.99,,2013-03-27 16:02:00,
2013-03-27 10:13:00,35.0,17.0,-100.00,SW,230,6.0,17.0,48,0.00,,,-99.99,,2013-03-27 16:13:00,
2013-03-27 10:22:00,35.0,17.0,-100.00,SW,215,9.0,15.0,47,0.00,,,-99.99,,2013-03-27 16:22:00,
2013-03-27 10:32:00,35.0,17.0,-100.00,SW,215,9.0,14.0,47,0.00,,,-99.99,,2013-03-27 16:32:00,
2013-03-27 10:42:00,36.0,18.0,-100.00,SW,230,7.0,15.0,47,0.00,,,-99.99,,2013-03-27 16:42:00,
2013-03-27 10:52:00,36.0,18.0,-100.00,SW,220,12.0,15.0,46,0.00,,,-99.99,,2013-03-27 16:52:00,
2013-03-27 11:02:00,35.0,17.0,-100.00,SSW,210,9.0,21.0,47,0.00,,,-99.99,,2013-03-27 17:02:00,
2013-03-27 11:12:00,37.0,19.0,-100.00,South,175,7.0,12.0,47,0.00,,,-99.99,,2013-03-27 17:12:00,
2013-03-27 11:22:00,37.0,19.0,-100.00,SW,215,6.0,9.0,47,0.00,,,-99.99,,2013-03-27 17:22:00,
2013-03-27 11:32:00,38.0,20.0,-100.00,WSW,245,7.0,11.0,47,0.00,,,-99.99,,2013-03-27 17:32:00,
2013-03-27 11:44:00,38.0,19.0,-100.00,SE,125,3.0,11.0,46,0.00,,,-99.99,,2013-03-27 17:44:00,
2013-03-27 11:52:00,38.0,18.0,-100.00,SSW,210,4.0,17.0,44,0.00,,,-99.99,,2013-03-27 17:52:00,
2013-03-27 12:02:00,38.0,18.0,-100.00,SSW,210,9.0,17.0,43,0.00,,,-99.99,,2013-03-27 18:02:00,
2013-03-27 12:12:00,39.0,19.0,-100.00,SSE,150,4.0,12.0,43,0.00,,,-99.99,,2013-03-27 18:12:00,
2013-03-27 12:22:00,38.0,18.0,-100.00,SW,215,7.0,16.0,43,0.00,,,-99.99,,2013-03-27 18:22:00,
2013-03-27 12:32:00,38.0,17.0,-100.00,SSW,200,9.0,16.0,42,0.00,,,-99.99,,2013-03-27 18:32:00,
2013-03-27 12:42:00,39.0,18.0,-100.00,SSW,200,4.0,16.0,42,0.00,,,-99.99,,2013-03-27 18:42:00,
2013-03-27 12:53:00,40.0,19.0,-100.00,South,170,4.0,11.0,41,0.00,,,-99.99,,2013-03-27 18:53:00,
2013-03-27 13:02:00,39.0,17.0,-100.00,South,185,6.0,17.0,41,0.00,,,-99.99,,2013-03-27 19:02:00,
2013-03-27 13:12:00,38.0,17.0,-100.00,South,170,6.0,12.0,41,0.00,,,-99.99,,2013-03-27 19:12:00,
2013-03-27 13:22:00,38.0,17.0,-100.00,SSE,160,7.0,17.0,42,0.00,,,-99.99,,2013-03-27 19:22:00,
2013-03-27 13:32:00,39.0,18.0,-100.00,East,100,6.0,17.0,42,0.00,,,-99.99,,2013-03-27 19:32:00,
2013-03-27 13:42:00,38.0,16.0,-100.00,SE,140,4.0,16.0,40,0.00,,,-99.99,,2013-03-27 19:42:00,
2013-03-27 13:52:00,40.0,18.0,-100.00,South,185,7.0,12.0,40,0.00,,,-99.99,,2013-03-27 19:52:00,
2013-03-27 14:02:00,40.0,17.0,-100.00,SSE,155,7.0,16.0,39,0.00,,,-99.99,,2013-03-27 20:02:00,
2013-03-27 14:12:00,41.0,18.0,-100.00,South,175,6.0,13.0,38,0.00,,,-99.99,,2013-03-27 20:12:00,
2013-03-27 14:22:00,42.0,18.0,-100.00,SSE,155,6.0,14.0,38,0.00,,,-99.99,,2013-03-27 20:22:00,
2013-03-27 14:32:00,42.0,18.0,-100.00,SW,230,7.0,15.0,37,0.00,,,-99.99,,2013-03-27 20:32:00,
2013-03-27 14:42:00,40.0,15.0,-100.00,SW,215,12.0,22.0,36,0.00,,,-99.99,,2013-03-27 20:42:00,
2013-03-27 14:52:00,41.0,16.0,-100.00,WSW,250,9.0,24.0,36,0.00,,,-99.99,,2013-03-27 20:52:00,
2013-03-27 15:02:00,41.0,16.0,-100.00,SW,235,14.0,22.0,35,0.00,,,-99.99,,2013-03-27 21:02:00,
2013-03-27 15:12:00,41.0,15.0,-100.00,SW,230,7.0,19.0,34,0.00,,,-99.99,,2013-03-27 21:12:00,
2013-03-27 15:22:00,42.0,15.0,-100.00,SSW,210,7.0,24.0,34,0.00,,,-99.99,,2013-03-27 21:22:00,
2013-03-27 15:32:00,41.0,15.0,-100.00,SSW,210,13.0,21.0,34,0.00,,,-99.99,,2013-03-27 21:32:00,
2013-03-27 15:43:00,41.0,15.0,-100.00,SW,230,12.0,17.0,34,0.00,,,-99.99,,2013-03-27 21:43:00,
2013-03-27 15:52:00,42.0,16.0,-100.00,SW,220,8.0,17.0,34,0.00,,,-99.99,,2013-03-27 21:52:00,
2013-03-27 16:03:00,42.0,16.0,-100.00,NE,55,3.0,16.0,34,0.00,,,-99.99,,2013-03-27 22:03:00,
2013-03-27 16:12:00,42.0,15.0,-100.00,SSW,210,10.0,21.0,33,0.00,,,-99.99,,2013-03-27 22:12:00,
2013-03-27 16:23:00,42.0,16.0,-100.00,SW,220,8.0,19.0,34,0.00,,,-99.99,,2013-03-27 22:23:00,
2013-03-27 16:33:00,42.0,16.0,-100.00,South,170,6.0,20.0,34,0.00,,,-99.99,,2013-03-27 22:33:00,
2013-03-27 16:42:00,42.0,16.0,-100.00,SSW,210,8.0,19.0,34,0.00,,,-99.99,,2013-03-27 22:42:00,
2013-03-27 16:53:00,41.0,15.0,-100.00,SSW,200,9.0,21.0,34,0.00,,,-99.99,,2013-03-27 22:53:00,
2013-03-27 17:02:00,42.0,15.0,-100.00,SSE,150,4.0,16.0,34,0.00,,,-99.99,,2013-03-27 23:02:00,
2013-03-27 17:12:00,42.0,16.0,-100.00,SSW,205,4.0,16.0,33,0.00,,,-99.99,,2013-03-27 23:12:00,
2013-03-27 17:22:00,41.0,14.0,-100.00,SW,225,9.0,19.0,32,0.00,,,-99.99,,2013-03-27 23:22:00,
2013-03-27 17:32:00,41.0,14.0,-100.00,ESE,115,5.0,18.0,32,0.00,,,-99.99,,2013-03-27 23:32:00,
2013-03-27 17:42:00,41.0,13.0,-100.00,SW,225,7.0,21.0,32,0.00,,,-99.99,,2013-03-27 23:42:00,
2013-03-27 17:52:00,41.0,13.0,-100.00,SW,220,8.0,19.0,32,0.00,,,-99.99,,2013-03-27 23:52:00,
2013-03-27 18:02:00,40.0,13.0,-100.00,SSW,210,12.0,19.0,32,0.00,,,-99.99,,2013-03-28 00:02:00,
2013-03-27 18:12:00,41.0,13.0,-100.00,SW,215,6.0,17.0,32,0.00,,,-99.99,,2013-03-28 00:12:00,
2013-03-27 18:22:00,40.0,13.0,-100.00,SW,220,7.0,14.0,32,0.00,,,-99.99,,2013-03-28 00:22:00,
2013-03-27 18:32:00,40.0,13.0,-100.00,SSW,200,7.0,15.0,32,0.00,,,-99.99,,2013-03-28 00:32:00,
2013-03-27 18:42:00,39.0,12.0,-100.00,SSW,195,5.0,12.0,32,0.00,,,-99.99,,2013-03-28 00:42:00,
2013-03-27 18:52:00,38.0,12.0,-100.00,SW,215,6.0,12.0,33,0.00,,,-99.99,,2013-03-28 00:52:00,
2013-03-27 19:02:00,38.0,11.0,-100.00,SSW,205,7.0,12.0,32,0.00,,,-99.99,,2013-03-28 01:02:00,
2013-03-27 19:12:00,38.0,11.0,-100.00,SSW,210,5.0,12.0,32,0.00,,,-99.99,,2013-03-28 01:12:00,
2013-03-27 19:22:00,37.0,11.0,-100.00,SW,225,6.0,9.0,34,0.00,,,-99.99,,2013-03-28 01:22:00,
2013-03-27 19:32:00,37.0,11.0,-100.00,SW,220,6.0,9.0,34,0.00,,,-99.99,,2013-03-28 01:32:00,
2013-03-27 19:42:00,36.0,11.0,-100.00,SW,230,4.0,10.0,34,0.00,,,-99.99,,2013-03-28 01:42:00,
2013-03-27 19:53:00,36.0,11.0,-100.00,SW,220,6.0,12.0,34,0.00,,,-99.99,,2013-03-28 01:53:00,
2013-03-27 20:02:00,36.0,11.0,-100.00,SW,225,8.0,12.0,34,0.00,,,-99.99,,2013-03-28 02:02:00,
2013-03-27 20:12:00,35.0,11.0,-100.00,SSW,210,6.0,12.0,35,0.00,,,-99.99,,2013-03-28 02:12:00,
2013-03-27 20:22:00,35.0,10.0,-100.00,SW,230,7.0,9.0,35,0.00,,,-99.99,,2013-03-28 02:22:00,
2013-03-27 20:32:00,35.0,10.0,-100.00,WSW,240,7.0,12.0,34,0.00,,,-99.99,,2013-03-28 02:32:00,
2013-03-27 20:42:00,35.0,10.0,-100.00,WSW,240,7.0,12.0,34,0.00,,,-99.99,,2013-03-28 02:42:00,
2013-03-27 20:52:00,35.0,10.0,-100.00,WSW,240,7.0,12.0,34,0.00,,,-99.99,,2013-03-28 02:52:00,
2013-03-27 21:02:00,34.0,10.0,-100.00,SW,220,5.0,11.0,36,0.00,,,-99.99,,2013-03-28 03:02:00,
2013-03-27 21:12:00,33.0,10.0,-100.00,SW,235,4.0,7.0,37,0.00,,,-99.99,,2013-03-28 03:12:00,
2013-03-27 21:22:00,33.0,10.0,-100.00,SW,230,3.0,9.0,37,0.00,,,-99.99,,2013-03-28 03:22:00,
2013-03-27 21:33:00,33.0,10.0,-100.00,SW,235,3.0,7.0,38,0.00,,,-99.99,,2013-03-28 03:33:00,
2013-03-27 21:43:00,32.0,10.0,-100.00,WSW,240,4.0,7.0,38,0.00,,,-99.99,,2013-03-28 03:43:00,
2013-03-27 21:53:00,32.0,10.0,-100.00,WSW,245,4.0,7.0,38,0.00,,,-99.99,,2013-03-28 03:53:00,
2013-03-27 22:02:00,32.0,10.0,-100.00,WSW,240,4.0,7.0,39,0.00,,,-99.99,,2013-03-28 04:02:00,
2013-03-27 22:12:00,32.0,10.0,-100.00,WSW,240,4.0,7.0,39,0.00,,,-99.99,,2013-03-28 04:12:00,
2013-03-27 22:23:00,32.0,10.0,-100.00,SW,230,4.0,6.0,39,0.00,,,-99.99,,2013-03-28 04:23:00,
2013-03-27 22:32:00,31.0,11.0,-100.00,WSW,255,2.0,4.0,42,0.00,,,-99.99,,2013-03-28 04:32:00,
2013-03-27 22:42:00,30.0,11.0,-100.00,SW,235,4.0,5.0,43,0.00,,,-99.99,,2013-03-28 04:42:00,
2013-03-27 22:52:00,30.0,11.0,-100.00,WSW,240,4.0,6.0,44,0.00,,,-99.99,,2013-03-28 04:52:00,
2013-03-27 23:02:00,30.0,11.0,-100.00,SW,230,6.0,10.0,44,0.00,,,-99.99,,2013-03-28 05:02:00,
2013-03-27 23:12:00,31.0,11.0,-100.00,SW,230,5.0,9.0,42,0.00,,,-99.99,,2013-03-28 05:12:00,
2013-03-27 23:22:00,31.0,11.0,-100.00,SW,220,6.0,10.0,41,0.00,,,-99.99,,2013-03-28 05:22:00,
2013-03-27 23:32:00,32.0,11.0,-100.00,SW,225,4.0,10.0,41,0.00,,,-99.99,,2013-03-28 05:32:00,
2013-03-27 23:42:00,32.0,11.0,-100.00,SW,225,6.0,10.0,41,0.00,,,-99.99,,2013-03-28 05:42:00,
2013-03-27 23:52:00,33.0,11.0,-100.00,WSW,245,6.0,11.0,40,0.00,,,-99.99,,2013-03-28 05:52:00,